Waarnemingen

Advertentie
Mijn weer
Landsort, Zweden (2582): temperatuur & dauwpunt: 12.01.2020 00:00:00 - 18.01.2020 00:00:00 (CET)Landsort, Zweden (2582): windsnelheid & windstoten: 12.01.2020 00:00:00 - 18.01.2020 00:00:00 (CET)Landsort, Zweden (2582): windrichting: 12.01.2020 00:00:00 - 18.01.2020 00:00:00 (CET)Landsort, Zweden (2582): luchtdruk: 12.01.2020 00:00:00 - 18.01.2020 00:00:00 (CET)Landsort, Zweden (2582): zicht: 12.01.2020 00:00:00 - 18.01.2020 00:00:00 (CET)Landsort, Zweden (2582): neerslag: 12.01.2020 00:00:00 - 18.01.2020 00:00:00 (CET)
Datum & Tijd tt [°C] td [°C] ff [km/u] ff [kn] fx [km/u] fx [kn] dd ppp [hPa] vv [km] rr [mm]
18.01.2020 00:00:00 - - - - - - - - - -
17.01.2020 23:00:00 4,8 3,9 36 19 48 26 Z 1011,7 8 0,0
17.01.2020 22:00:00 5,0 4,1 38 20 50 27 Z 1012,6 9 0,0
17.01.2020 21:00:00 5,1 4,1 39 21 49 26 Z 1013,3 10 0,0
17.01.2020 20:00:00 5,2 4,5 36 19 50 27 ZZW 1013,9 8 0,0
17.01.2020 19:00:00 5,1 4,8 35 19 47 25 ZZW 1014,4 7 0,0
17.01.2020 18:00:00 4,4 4,3 33 18 51 27 ZZW 1014,7 0,8 0,0
17.01.2020 17:00:00 4,7 4,1 27 15 40 22 ZZW 1015,5 5 0,0
17.01.2020 16:00:00 4,7 4,1 28 15 37 20 ZZW 1015,6 7 0,0
17.01.2020 15:00:00 4,7 4,0 29 16 43 23 ZZW 1016,4 8 0,0
17.01.2020 14:00:00 4,6 4,2 32 17 52 28 ZW 1016,9 7 0,0
17.01.2020 13:00:00 4,6 4,2 35 19 49 26 ZZW 1017,2 4,6 0,0
17.01.2020 12:00:00 4,7 4,1 31 17 52 28 ZW 1017,8 6 0,0
17.01.2020 11:00:00 4,9 4,2 32 18 54 29 ZZW 1018,6 7 0,0
17.01.2020 10:00:00 5,0 4,0 39 21 54 29 ZZW 1018,9 12 0,0
17.01.2020 09:00:00 4,7 3,7 34 18 49 26 ZZW 1019,2 13 0,0
17.01.2020 08:00:00 4,5 3,2 31 17 45 24 ZZW 1019,5 17 0,0
17.01.2020 07:00:00 4,5 3,3 23 12 35 19 ZZW 1019,8 19 0,0
17.01.2020 06:00:00 4,5 3,2 23 12 35 19 ZW 1020,3 19 0,0
17.01.2020 05:00:00 4,5 3,3 24 13 33 18 ZZW 1020,2 15 0,0
17.01.2020 04:00:00 4,4 2,9 24 13 33 18 ZW 1020,8 18 0,0
17.01.2020 03:00:00 4,2 2,9 21 11 33 18 ZW 1020,9 15 0,0
17.01.2020 02:00:00 4,4 2,7 23 12 34 19 ZW 1020,7 17 0,0
17.01.2020 01:00:00 4,6 2,8 23 13 - - WZW 1021,0 15 0,0
17.01.2020 00:00:00 4,8 2,7 28 15 38 21 WZW 1020,7 16 0,0
16.01.2020 23:00:00 5,0 2,7 25 13 42 23 WZW 1020,4 16 0,0
16.01.2020 22:00:00 5,2 2,7 31 17 42 23 WZW 1019,9 16 0,0
16.01.2020 21:00:00 5,4 2,7 31 17 49 26 W 1019,3 15 0,0
16.01.2020 20:00:00 5,8 2,6 44 24 50 27 W 1018,4 16 0,0
16.01.2020 19:00:00 5,9 2,5 36 19 56 30 WZW 1018,0 16 0,0
16.01.2020 18:00:00 6,3 2,6 41 22 53 28 W 1016,9 15 0,0
16.01.2020 17:00:00 6,1 3,1 34 18 45 24 W 1016,1 14 0,0
16.01.2020 16:00:00 6,4 3,4 38 20 53 29 W 1015,0 15 0,0
16.01.2020 15:00:00 6,8 3,4 47 25 53 28 W 1013,7 17 0,0
16.01.2020 14:00:00 6,8 3,4 44 24 53 29 W 1013,1 17 0,0
16.01.2020 13:00:00 6,8 3,4 46 25 62 34 W 1012,1 19 0,0
16.01.2020 12:00:00 6,9 3,5 49 27 61 33 W 1011,0 20 0,0
16.01.2020 11:00:00 5,8 3,3 36 19 56 30 WZW 1010,3 16 0,0
16.01.2020 10:00:00 5,6 2,9 41 22 53 29 WZW 1009,8 16 0,0
16.01.2020 09:00:00 5,4 2,9 42 23 56 30 ZW 1009,1 17 0,0
16.01.2020 08:00:00 5,0 2,9 42 23 57 31 ZW 1008,5 17 0,0
16.01.2020 07:00:00 5,1 2,8 46 25 59 32 ZW 1008,1 22 0,0
16.01.2020 06:00:00 4,9 2,9 37 20 51 28 ZW 1007,6 31 0,0
16.01.2020 05:00:00 5,1 2,8 42 23 56 30 WZW 1007,1 32 0,0
16.01.2020 04:00:00 4,9 2,9 36 19 49 26 WZW 1006,3 41 0,0
16.01.2020 03:00:00 5,0 2,9 37 20 50 27 WZW 1005,7 50 0,0
16.01.2020 02:00:00 5,1 3,0 38 21 50 27 WZW 1005,3 50 0,0
16.01.2020 01:00:00 5,3 2,8 29 15 39 21 WZW 1004,6 50 0,0
16.01.2020 00:00:00 5,5 2,7 27 15 40 22 WZW 1003,8 50 0,0
15.01.2020 23:00:00 5,5 4,0 21 12 39 21 WZW 1003,3 26 0,2
15.01.2020 22:00:00 6,3 3,1 29 16 38 20 WZW 1002,8 42 0,0
15.01.2020 21:00:00 5,8 4,6 26 14 34 18 WZW 1002,6 50 0,0
15.01.2020 20:00:00 5,9 4,2 25 14 32 17 WZW 1002,2 43 0,0
15.01.2020 19:00:00 5,9 4,2 24 13 31 17 WZW 1001,8 42 0,0
15.01.2020 18:00:00 5,7 4,2 25 13 37 20 WZW 1001,3 41 0,0
15.01.2020 17:00:00 6,2 4,2 28 15 40 22 WZW 1000,8 46 0,0
15.01.2020 16:00:00 7,0 4,5 35 19 43 23 W 1000,0 50 0,0
15.01.2020 15:00:00 6,9 5,1 31 17 37 20 W 998,8 48 0,0
15.01.2020 14:00:00 6,3 5,7 24 13 49 26 WZW 997,9 22 0,0
15.01.2020 13:00:00 7,4 6,5 39 21 60 32 WZW 997,1 12 0,0
15.01.2020 12:00:00 7,0 5,9 37 20 53 29 ZW 996,1 11 0,0
15.01.2020 11:00:00 7,4 5,9 35 19 50 27 ZZW 995,5 37 0,0
15.01.2020 10:00:00 7,0 5,5 37 20 57 31 ZZW 994,8 36 0,0
15.01.2020 09:00:00 7,2 5,5 43 23 65 35 ZZW 993,7 35 0,0
15.01.2020 08:00:00 7,2 5,5 47 25 64 34 ZZW 992,7 29 0,0
15.01.2020 07:00:00 7,1 5,7 48 26 71 38 ZZW 992,4 20 0,0
15.01.2020 06:00:00 6,8 5,4 51 28 77 41 ZZW 992,2 19 0,0
15.01.2020 05:00:00 6,6 5,2 55 30 78 42 ZZW 992,6 15 0,0
15.01.2020 04:00:00 6,3 5,1 55 30 75 41 ZZW 993,1 12 0,0
15.01.2020 03:00:00 5,7 5,3 48 26 66 35 Z 994,8 4,7 2,3
15.01.2020 02:00:00 5,2 4,2 38 21 51 28 Z 997,2 6 0,3
15.01.2020 01:00:00 5,3 4,0 29 16 41 22 ZZW 998,6 19 0,0
15.01.2020 00:00:00 5,2 3,9 29 16 39 21 ZZW 999,7 17 0,0
14.01.2020 23:00:00 5,2 3,7 31 17 44 24 ZZW 1000,1 21 0,0
14.01.2020 22:00:00 5,2 3,9 29 16 45 25 ZW 1000,3 20 0,0
14.01.2020 21:00:00 5,3 4,0 33 18 48 26 ZW 1000,0 32 0,0
14.01.2020 20:00:00 5,2 4,2 36 19 49 26 ZW 999,5 34 0,0
14.01.2020 19:00:00 5,1 4,1 31 17 49 26 ZW 998,9 28 0,0
14.01.2020 18:00:00 5,2 4,2 37 20 51 28 ZW 998,4 17 0,0
14.01.2020 17:00:00 5,1 4,2 37 20 59 32 ZW 998,2 11 0,1
14.01.2020 16:00:00 5,1 4,1 44 24 65 35 ZZW 997,6 8 0,1
14.01.2020 15:00:00 5,0 4,0 49 26 72 39 ZZW 997,8 9 1,0
14.01.2020 14:00:00 4,9 3,6 58 32 82 44 ZZW 997,9 4,4 0,4
14.01.2020 13:00:00 5,1 3,3 61 33 81 44 Z 998,7 9 0,0
14.01.2020 12:00:00 5,0 3,2 57 31 85 46 Z 1000,2 12 0,0
14.01.2020 11:00:00 5,0 3,0 57 31 86 47 Z 1001,4 14 0,0
14.01.2020 10:00:00 5,1 3,0 58 31 78 42 Z 1002,3 16 0,0
14.01.2020 09:00:00 5,1 3,3 47 25 59 32 Z 1003,9 13 0,0
14.01.2020 08:00:00 4,9 3,2 50 27 63 34 Z 1004,8 18 0,0
14.01.2020 07:00:00 4,8 3,3 41 22 54 29 ZZW 1005,7 18 0,0
14.01.2020 06:00:00 4,4 3,1 36 20 47 26 Z 1006,7 20 0,0
14.01.2020 05:00:00 3,7 2,7 27 15 38 20 ZZW 1007,6 24 0,0
14.01.2020 04:00:00 2,9 1,7 30 16 42 23 ZZW 1008,6 28 0,0
14.01.2020 03:00:00 3,7 1,6 39 21 52 28 ZW 1009,6 38 0,0
14.01.2020 02:00:00 3,9 1,9 26 14 41 22 ZW 1009,9 30 0,0
14.01.2020 01:00:00 3,9 1,9 31 17 40 22 WZW 1010,0 31 0,0
14.01.2020 00:00:00 3,8 1,8 29 16 40 22 WZW 1009,9 32 0,0
13.01.2020 23:00:00 3,9 1,8 31 17 41 22 WZW 1010,5 27 0,0
13.01.2020 22:00:00 3,8 1,7 29 15 41 22 WZW 1010,2 32 0,0
13.01.2020 21:00:00 3,9 1,8 33 18 42 23 WZW 1010,1 29 0,0
13.01.2020 20:00:00 4,3 1,8 27 15 37 20 WZW 1010,2 37 0,0
13.01.2020 19:00:00 4,2 2,1 24 13 37 20 WZW 1010,4 34 0,0
13.01.2020 18:00:00 4,4 2,1 28 15 39 21 WZW 1010,0 36 0,0
13.01.2020 17:00:00 4,5 2,2 25 14 - - WZW 1009,4 32 0,0
13.01.2020 16:00:00 4,2 2,5 22 12 35 19 WZW 1009,4 22 0,0
13.01.2020 15:00:00 4,1 2,3 26 14 34 18 WZW 1009,3 26 0,0
13.01.2020 14:00:00 4,1 2,3 24 13 33 18 WZW 1009,4 26 0,0
13.01.2020 13:00:00 4,0 2,0 26 14 - - WZW 1009,5 37 0,0
13.01.2020 12:00:00 3,9 2,1 25 14 - - W 1009,2 32 0,0
13.01.2020 11:00:00 3,7 2,1 29 16 39 21 W 1009,3 28 0,0
13.01.2020 10:00:00 3,6 2,0 30 16 38 21 W 1009,0 26 0,0
13.01.2020 09:00:00 3,3 1,8 24 13 39 21 W 1008,8 19 0,0
13.01.2020 08:00:00 3,3 1,8 33 18 44 24 W 1008,1 20 0,0
13.01.2020 07:00:00 3,3 1,7 36 19 46 25 W 1007,5 19 0,0
13.01.2020 06:00:00 3,2 1,7 35 19 42 23 W 1007,5 15 0,0
13.01.2020 05:00:00 3,1 1,8 36 19 44 24 W 1007,2 15 0,0
13.01.2020 04:00:00 3,2 1,7 29 15 40 21 W 1007,2 15 0,0
13.01.2020 03:00:00 3,3 1,5 31 17 40 21 W 1007,1 16 0,0
13.01.2020 02:00:00 3,5 1,7 32 17 39 21 W 1007,0 17 0,0
13.01.2020 01:00:00 3,4 1,8 26 14 34 18 W 1006,6 19 0,0
13.01.2020 00:00:00 3,7 2,2 19 11 29 16 W 1006,3 16 0,0
12.01.2020 23:00:00 3,6 2,0 21 11 28 15 WZW 1005,9 20 0,0
12.01.2020 22:00:00 3,8 2,0 19 11 29 16 W 1005,8 23 0,0
12.01.2020 21:00:00 4,2 2,2 26 14 37 20 WNW 1005,6 21 0,0
12.01.2020 20:00:00 4,6 2,5 29 16 40 22 W 1005,4 19 0,0
12.01.2020 19:00:00 4,8 2,7 29 16 42 23 W 1004,7 23 0,0
12.01.2020 18:00:00 5,3 2,8 32 17 39 21 W 1004,4 29 0,0
12.01.2020 17:00:00 5,6 2,8 32 18 38 21 W 1003,7 25 0,0
12.01.2020 16:00:00 5,9 3,1 31 17 46 25 W 1003,3 22 0,0
12.01.2020 15:00:00 6,5 3,3 37 20 51 28 W 1002,6 35 0,0
12.01.2020 14:00:00 6,8 3,6 39 21 49 26 W 1002,2 30 0,0
12.01.2020 13:00:00 6,4 4,1 31 17 39 21 WZW 1001,5 32 0,0
12.01.2020 12:00:00 6,6 4,6 31 17 54 29 WZW 1001,3 34 0,0
12.01.2020 11:00:00 6,1 4,7 29 16 45 25 WZW 1001,5 20 0,0
12.01.2020 10:00:00 5,6 4,7 34 19 49 26 ZW 1001,5 15 0,0
12.01.2020 09:00:00 5,9 4,9 41 22 57 31 ZW 1001,4 15 0,0
12.01.2020 08:00:00 5,7 4,7 39 21 66 35 ZW 1001,1 31 0,0
12.01.2020 07:00:00 5,6 4,6 46 25 63 34 ZW 1001,4 30 0,0
12.01.2020 06:00:00 5,7 4,5 49 26 66 36 ZW 1001,1 24 0,0
12.01.2020 05:00:00 6,1 4,3 43 23 61 33 ZW 1001,7 25 0,0
12.01.2020 04:00:00 6,2 4,0 48 26 69 38 ZW 1002,4 46 0,0
12.01.2020 03:00:00 6,1 3,8 47 26 64 35 ZW 1002,6 50 0,0
12.01.2020 02:00:00 6,1 3,8 47 26 59 32 ZW 1002,8 50 0,0
12.01.2020 01:00:00 5,9 3,7 47 25 65 35 ZW 1003,6 48 0,0
12.01.2020 00:00:00 5,9 3,6 48 26 63 34 ZW 1004,4 45 0,0

tt = temperatuur
td = dauwpunt
ff = windsnelheid
fx = windstoten
dd = windrichting
ppp = luchtdruk
vv = zicht
rr = neerslag

Weerstations in de omgeving